FENGYUN 1C DEB, 30119

Orbit data source: Space-Track

FENGYUN 1C DEB, 30119 is space debris in SSO originally from a launch on Mon, 10 May 1999 UTC launched from the Taiyaun Space Center, China (TSC). Fengyun 1C debris stems from the Chinese weather satellite Fengyun-1C, which was intentionally destroyed by a Chinese anti-satellite missile in 2007. This event dramatically increased the amount of space debris, with thousands of trackable fragments posing hazards to satellites and human spaceflight. The Fengyun 1C debris cloud has become a focal point in discussions about space sustainability and the need for international regulations to prevent the creation of new debris.

Loading next visibility...
Identifier
30119, 1999-025RY
Orbit
SSO
Country
Flag of CNCN / PRC
Related business
Manufacturer
Unknown
Mission
Spacecraft
Bus & Motor
Unknown
Mass
Unknown
Launch date (UTC)
1999-05-10 (27 years ago)
Launch vehicle
Unknown
Launch site
Taiyaun Space Center, China (TSC)
Object type
Payload
Rocket body
Debris
Shape & HBR
Unknown shape, 0.1 m
Radar Cross Section
Medium (>0.1 m² and <1 m²)

Expand to show TLE details & history
Last TLE update: 2 days ago

TLE from 2 days ago
0 FENGYUN 1C DEB
1 30119U 99025RY  26163.93654360  .00002754  00000-0  11236-2 0  9996
2 30119  97.9311 144.8712 0131552 112.7730 303.6167 14.23437027997713
Epoch: 2026-06-12T22:28Z
TLE epoch observation values (Epoch: 2026-06-12T22:28:37.367Z)
Latitude
54.44537°
Longitude
-104.72253°
Altitude
771.206 km
Speed
7.501 km/s
True Right ascension
08h 54m 46s
True Declination
54° 16' 58"
Sunlit
Object was in daylight at epoch
Visualization orbit readout
Latitude
Unknown
Longitude
Unknown
Altitude
Unknown
Speed
Unknown
Apparent Right ascension
Unknown
Apparent Declination
Unknown
Sunlit
N/A
Visualization observer readout
Local Sidereal Time
06:38:22
Azimuth
Unknown
Elevation
Unknown
Doppler factor
Unknown
Orbital elements
Apogee altitude
905.443 km
Perigee altitude
716.297 km
Semi-major axis
7,189.007 km
Eccentricity
0.01316
Inclination
97.9311°
RAAN
144.8712°
Arg. of periapsis
112.773°
True anomaly
302.34991°
Mean anomaly
303.6167°
Eccentric anomaly
302.98445°
Mean motion
3.56074 °/min
Orbital period
101.1 mins
BSTAR
0.0011236
Loading maneuver chart data...
Computing Atmospheric mass density...

Documentation

Showing up to 5 results
|